Regional Weather Roundup
Issued by NWS

Home | Current Version | Previous Version | Graphics & Text | Print | Product List | Glossary On
Versions: 1 2 3 4 5 6 7 8 9 10 11 12 13 14 15 16 17 18 19 20 21 22 23 24 25 26 27 28 29 30 31 32 33 34 35 36 37 38 39 40 41 42 43 44 45 46 47 48 49 50
707
ASUS43 KDMX 131406
RWRIA

WEATHER ROUNDUP FOR IOWA
NATIONAL WEATHER SERVICE DES MOINES IA
800 AM CST WED DEC 13 2017

NOTE: "FAIR" INDICATES FEW OR NO CLOUDS BELOW 12,000 FEET WITH NO
SIGNIFICANT WEATHER AND/OR OBSTRUCTIONS TO VISIBILITY.

* - THESE STATIONS ARE NOT NWS STATIONS...THUS NOT UNDER NWS
QUALITY CONTROL.  THEY ALSO DO NOT REPORT WEATHER SUCH
AS PRECIPITATION OR FOG.

IAZ001>003-012>014-020>022-031>034-043>046-131500-
   NORTHWEST IOWA

CITY           SKY/WX    TMP DP  RH WIND       PRES   REMARKS
CARROLL *      CLOUDY    46  32  57 NW37G47   29.54R
CHEROKEE *     DRIZZLE   41  35  79 NW23G38   29.60R
DENISON *      CLOUDY    46  30  53 NW37G51   29.60R
LE MARS *      CLOUDY    43  36  75 NW25G38   29.63R
ORANGE CITY *  CLOUDY    39  37  93 NW17G35   29.61R WCI  30
SHELDON *      LGT RAIN  37  36  93 NW28G36   29.57R WCI  25
SIOUX CITY     LGT RAIN  46  33  60 NW36G45   29.63R
SPENCER        LGT RAIN  38  35  89 NW26G36   29.53R WCI  26
STORM LAKE *   MIX PCPN  41  34  75 NW26G43   29.55R
$$

IAZ055>058-069>071-079>083-090>094-131500-
   SOUTHWEST IOWA

CITY           SKY/WX    TMP DP  RH WIND       PRES   REMARKS
ATLANTIC *     CLOUDY    46  27  46 W13G21    29.60R
AUDUBON *      CLOUDY    48  30  49 NW21G33   29.58R
CLARINDA *     CLOUDY    46  27  46 NW14G25   29.66R
COUNCIL BLFS * CLOUDY    48  27  43 NW23G30   29.65R
CRESTON *      CLOUDY    41  25  52 W16G24    29.59R
HARLAN  *      MOCLDY    46  28  49 NW25G33   29.63S
LAMONI         PTCLDY    39  24  55 W17       29.56F WCI  30
RED OAK *      CLOUDY    48  27  43 NW13G18   29.64R
SHENANDOAH *   CLOUDY    43  27  52 W7G13     29.66S
$$

IAZ047>049-059>061-072>074-084-131500-
   CENTRAL IOWA

CITY           SKY/WX    TMP DP  RH WIND       PRES   REMARKS
AMES           CLOUDY    45  30  55 W25G32    29.47R
ANKENY *       CLOUDY    45  27  49 W17G26    29.51R
BOONE *        CLOUDY    46  34  61 NW31G43   29.47R
CHARITON *     CLOUDY    41  25  52 W16G22    29.52R
DES MOINES     CLOUDY    46  27  47 NW23G29   29.50S
GRINNELL*      CLOUDY    38  25  59 W15G22    29.45S WCI  29
KNOXVILLE *    CLOUDY    39  23  52 W13       29.49R WCI  32
MARSHALLTOWN   CLOUDY    42  26  53 W20       29.42R
NEWTON *       CLOUDY    43  25  49 W18G25    29.46F
PELLA *        PTCLDY    39  25  55 W14       29.49S WCI  31
PERRY *        CLOUDY    46  28  49 NW21G35   29.52R
$$

IAZ004>006-015-016-023>025-035-036-131500-
   NORTH CENTRAL IOWA

CITY           SKY/WX    TMP DP  RH WIND       PRES   REMARKS
ALGONA *       CLOUDY    41  34  75 NW35G48   29.46R
CLARION *      MOCLDY    41  30  65 NW29      29.43R
ESTHERVILLE    FLURRIES  35  32  88 NW35G48   29.49R WCI  21
FORT DODGE *   CLOUDY    43  34  70 NW24G35   29.48R
MASON CITY     PTCLDY    39  27  62 NW29G41   29.37R WCI  27
FOREST CITY *  MOCLDY    39  32  75 NW23G32   29.39R WCI  29
WEBSTER CITY * MIX PCPN  43  32  65 NW35G47   29.44R
IOWA FALLS *     N/A     42  28  58 W22G32    29.42S
$$

IAZ007>011-017>019-026>030-037>042-050>054-066-131500-
   NORTHEAST IOWA

CITY           SKY/WX    TMP DP  RH WIND       PRES   REMARKS
CEDAR RAPIDS   CLOUDY    35  25  66 SW17      29.40F WCI  25
CHARLES CITY * MOCLDY    37  27  65 W16       29.33F WCI  28
CLINTON *      CLOUDY    31  23  72 S14       29.43F WCI  21
DECORAH *      CLOUDY    32  25  74 VRB6G13   29.30S WCI  26
DUBUQUE        CLOUDY    28  22  78 S15       29.36F WCI  16
MONTICELLO *   CLOUDY    30  23  74 S7        29.37F WCI  23
OELWEIN *      CLOUDY    34  27  75 W13       29.35F WCI  25
WATERLOO       CLOUDY    38  24  57 W15       29.36S WCI  29
$$

IAZ064-065-067-068-078-131500-
   EAST CENTRAL IOWA

CITY           SKY/WX    TMP DP  RH WIND       PRES   REMARKS
DAVENPORT      CLOUDY    32  22  66 SW18G25   29.45F WCI  20
IOWA CITY      CLOUDY    35  25  66 SW10      29.44F WCI  27
MT. PLEASANT * CLOUDY    33  24  69 SW16      29.49F WCI  22
MUSCATINE *    PTCLDY    34  23  64 SW13G20   29.45F WCI  25
QUAD CITIES    CLOUDY    33  22  63 SW14      29.45F WCI  23
$$

IAZ062-063-075>077-085>089-095>099-131500-
   SOUTHEAST IOWA

CITY           SKY/WX    TMP DP  RH WIND       PRES   REMARKS
BURLINGTON     CLOUDY    33  24  69 SW20      29.50F WCI  21
FAIRFIELD *    CLOUDY    36  23  60 SW15      29.46F WCI  26
FORT MADISON * PTCLDY    32  25  74 SW14      29.52F WCI  22
KEOKUK *       CLOUDY    34  23  64 SW14G20   29.54F WCI  24
OSKALOOSA *      N/A     37  25  62 W14       29.47F WCI  28
OTTUMWA        CLOUDY    37  24  59 SW12      29.48F WCI  29
WASHINGTON *   PTCLDY    36  27  69 SW15G21   29.46F WCI  26
$$

ABBREVIATIONS USED IN REMARKS
   TC - TEMPERATURES IN CELSIUS
  WCI - WIND CHILL INDEX
   HX - HEAT INDEX
  VSB - VISIBILITY
$$





USA.gov is the U.S. government's official web portal to all federal, state and local government web resources and services.